Regional Weather Roundup
Issued by NWS

Home | Current Version | Previous Version | Text Only | Print | Product List | Glossary Off
Versions: 1 2 3 4 5 6 7 8 9 10 11 12 13 14 15 16 17 18 19 20 21 22 23 24 25 26 27 28 29 30 31 32 33 34 35 36 37 38 39 40 41 42 43 44 45 46 47 48 49 50

365
ASUS44 KLIX 300605
RWRLA
LOUISIANA WEATHER ROUNDUP
NATIONAL WEATHER SERVICE NEW ORLEANS LA
100 AM CDT TUE SEP 30 2014

NOTE: "FAIR" INDICATES FEW OR NO CLOUDS BELOW 12,000 FEET WITH NO
      SIGNIFICANT WEATHER AND/OR OBSTRUCTIONS TO VISIBILITY.
      SKY/WX - SKY CONDITION AND SIGNIFICANT WEATHER.
      TMP - AIR TEMPERATURE.    DP   - DEWPOINT TEMPERATURE.
      RH  - RELATIVE HUMIDITY.  PRES - PRESSURE.
      HX  - HEAT INDEX.         WCI  - WIND CHILL INDEX.

*  THESE STATIONS ARE NOT NWS OR FAA STATIONS AND ARE NOT UNDER
   NWS QUALITY CONTROL.

LAZ040-048-061>063-065-066-069-300700-
SOUTHEAST LOUISIANA

CITY           SKY/WX    TMP DP  RH WIND       PRES   REMARKS
N.O. AUDUBON     N/A     76  73  92 MISG        N/A
6HR MIN TEMP:  75; 6HR MAX TEMP:  79;

N.O. INTL ARPT PTCLDY    76  72  87 CALM      29.86F
6HR MIN TEMP:  75; 6HR MAX TEMP:  80;

N.O. LAKEFRONT CLEAR     79  74  84 NE3       29.87F
6HR MIN TEMP:  78; 6HR MAX TEMP:  80;

N.O. DOWNTOWN* FAIR      79  70  73 CALM      29.87F
6HR MIN TEMP:  79; 6HR MAX TEMP:  81;

SLIDELL        CLEAR     71  69  93 CALM      29.87S
6HR MIN TEMP:  71; 6HR MAX TEMP:  79;

BATON ROUGE    CLEAR     71  69  93 CALM      29.87F
6HR MIN TEMP:  71; 6HR MAX TEMP:  80; 6HR PCP: TRACE;

BOOTHVILLE     PTCLDY    79  75  87 CALM      29.86F
6HR MIN TEMP:  78; 6HR MAX TEMP:  79;

BELLE CHASSE   CLEAR     73  69  87 CALM      29.86F
6HR MIN TEMP:  72; 6HR MAX TEMP:  78;

BOGALUSA*        N/A     71  68  89 CALM      29.89F
6HR MIN TEMP:  71; 6HR MAX TEMP:  79;

GALLIANO*      NOT AVBL
NEW ROADS*     FAIR      72  71  98 CALM      29.88S
6HR MIN TEMP:  71; 6HR MAX TEMP:  79;

GONZALES*      FAIR      72  72 100 CALM      29.87S FOG
6HR MIN TEMP:  72; 6HR MAX TEMP:  77;

HAMMOND*       CLEAR     72  68  88 CALM      29.89F
HOUMA*         CLEAR    N/A N/A N/A CALM      29.87S HAZE
PORT FOURCHON* CLEAR     79  73  83 CALM      29.90S

$$

LAZ041-044-053-054-300700-
SOUTHWEST LOUISIANA

CITY           SKY/WX    TMP DP  RH WIND       PRES   REMARKS
LAKE CHARLES   CLEAR     74  71  91 NE3       29.86F
6HR MIN TEMP:  74; 6HR MAX TEMP:  81; 6HR PCP: TRACE;

LAFAYETTE      CLEAR     73  72  96 NE3       29.87F
6HR MIN TEMP:  73; 6HR MAX TEMP:  81;

PATTERSON      CLEAR     72  72 100 CALM      29.89F
6HR MIN TEMP:  72; 6HR MAX TEMP:  75;

SALT POINT       N/A     77  74  90 CALM      29.86F
6HR MIN TEMP:  77; 6HR MAX TEMP:  79; 6HR PCP:  0.01;

NEW IBERIA     CLEAR     74  72  93 NW3       29.88S
6HR MIN TEMP:  74; 6HR MAX TEMP:  83; 6HR PCP: TRACE;

CHENAULT AIRPK CLEAR     74  72  94 NE3       29.87F
6HR MIN TEMP:  74; 6HR MAX TEMP:  78;


$$

LAZ027-028-300700-
CENTRAL LOUISIANA

CITY           SKY/WX    TMP DP  RH WIND       PRES   REMARKS
FORT POLK      CLEAR     72  69  92 NE5       29.88F
6HR MIN TEMP:  71; 6HR MAX TEMP:  78;

ALEXANDRIA INT CLEAR     70  68  93 CALM      29.87F
6HR MIN TEMP:  70; 6HR MAX TEMP:  79;

ALEXANDRIA     PTCLDY    70  69  97 CALM      29.88F FOG
6HR MIN TEMP:  70; 6HR MAX TEMP:  79;


$$

LAZ001-002-300700-
NORTHWEST LOUISIANA

CITY           SKY/WX    TMP DP  RH WIND       PRES   REMARKS
SHREVEPORT     PTCLDY    71  65  81 CALM      29.90S
6HR MIN TEMP:  71; 6HR MAX TEMP:  82;

BARKSDALE AFB  MOCLDY    71  65  83 CALM      29.90F
6HR MIN TEMP:  70; 6HR MAX TEMP:  82;

DTN SHREVEPORT CLOUDY    72  66  81 CALM      29.90S
6HR MIN TEMP:  70; 6HR MAX TEMP:  83;


$$

LAZ014-016-300700-
NORTHEAST LOUISIANA

CITY           SKY/WX    TMP DP  RH WIND       PRES   REMARKS
MONROE         CLEAR     71  63  75 NE5       29.91S
6HR MIN TEMP:  67; 6HR MAX TEMP:  78;

TALLULAH       CLEAR     67  65  93 CALM      29.90F
6HR MIN TEMP:  66; 6HR MAX TEMP:  78;


$$




USA.gov is the U.S. government's official web portal to all federal, state and local government web resources and services.